Other Public Products
Issued by NWS Charleston, SC

Current Version | Previous Version | Graphics & Text | Print | Product List | Glossary On
Versions: 1 2 3 4 5 6 7 8 9 10 11 12 13 14 15 16 17 18 19 20 21 22 23 24 25 26 27 28 29 30 31 32 33 34 35 36 37 38 39 40 41 42 43 44 45 46 47 48 49 50
000
FPUS82 KCHS 141027
OPUCHS

TEST...KCHS/KSAV Gateway Observations...TEST
National Weather Service Charleston SC
500 AM EST THU DEC 14 2017

NOTE: "fair" indicates few or no clouds below 12,000 feet with no
significant weather and/or obstructions to visibility.

SCZ050-WAZ558-NCZ071-TXZ119-213-PAZ071-DCZ001-FLZ074-172-MI076-
NYZ176-178-MAZ016-IL014-TNZ027-NJZ106-GAZ044-MD014-141100-

...Gateway Observations for Charleston International...

CITY           SKY/WX    TMP DP  RH WIND       PRES   REMARKS
Chas Airport   CLEAR     43  27  53 SW10      29.88S
Seattle        MOCLDY    36  34  92 CALM      30.37F
Charlotte      PTCLDY    37  20  50 SW5       29.72S WCI  33
Dallas DFW     PTCLDY    43  33  68 NW6       29.90R
Dallas Love    PTCLDY    42  33  70 CALM      29.92R
Philladelphia  CLOUDY    31  27  85 CALM      29.52F
Wash National  CLOUDY    37  20  50 SW10      29.54R WCI  30
Baltimore      MOCLDY    36  19  50 SW8       29.51R WCI  30
Miami          PTCLDY    51  48  89 W3        30.06S
Detroit        FLURRIES  21  14  74 NW12      29.80R WCI   9
Newark         CLOUDY    25  22  88 N9        29.54S WCI  15
Laguardia      CLOUDY    28  24  85 N7        29.54F WCI  21
J F K          CLOUDY    24  23  96 NE10      29.55F WCI  14
Boston Logan   CLOUDY    23   8  52 SW14      29.60R WCI  11
Ft. Lauderdale CLEAR     50  47  89 NW5       30.05S
Chicago O`Hare PTCLDY    19  11  70 N14       29.92R WCI   6
Chicago Midway MOCLDY    21  13  71 NW15      29.93R WCI   8
Houston Bush   CLOUDY    46  42  86 CALM      29.96R
Houston Hobby  MOCLDY    47  42  83 CALM      29.95S
Nashville      CLEAR     40  30  67 N13       29.88R WCI  32
Atlanta        PTCLDY    40  29  64 W8        29.84F WCI  34

$$

GAZ044-118-TXZ119-213-NCZ071-DCZ001-MDZ014-506-PAZ021-071-NJZ106-
NYZ176-178-MAZ106-OHZ011-021-055-MIZ076-KYZ091-ILZ014-INZ047-
MNZ060-ONZ431-141100-

...Gateway Observations for Savannah International...

CITY           SKY/WX    TMP DP  RH WIND       PRES   REMARKS
Savannah Arpt  CLEAR     40  33  76 SW8       29.93F WCI  34
Atlanta        PTCLDY    40  29  64 W8        29.84F WCI  34
Charlotte      PTCLDY    37  20  50 SW5       29.72S WCI  33
Dallas DFW     PTCLDY    43  33  68 NW6       29.90R
Houston Bush   CLOUDY    46  42  86 CALM      29.96R
Wash National  CLOUDY    37  20  50 SW10      29.54R WCI  30
Wash Dulles    PTCLDY    30  17  58 CALM      29.51R
Baltimore      MOCLDY    36  19  50 SW8       29.51R WCI  30
Philadelphia   CLOUDY    31  27  85 CALM      29.52F
Newark         CLOUDY    25  22  88 N9        29.54S WCI  15
Laguardia      CLOUDY    28  24  85 N7        29.54F WCI  21
J F K          CLOUDY    24  23  96 NE10      29.55F WCI  14
Boston         CLOUDY    23   8  52 SW14      29.60R WCI  11
Pittsburg      LGT SNOW  27  22  81 NW21      29.58R WCI  13
Akron          LGT SNOW  24  20  84 NW9       29.66R FOG     WCI  14
Cleveland      LGT SNOW  25  21  85 N21G31    29.72R BLWGSNOWWCI  11
Cincinnati     CLOUDY    31  22  69 NW13      29.80R WCI  21
Columbus       CLOUDY    26  20  78 NW16G24   29.78R WCI  14
Detroit        FLURRIES  21  14  74 NW12      29.80R WCI   9
Chicago O`Hare PTCLDY    19  11  70 N14       29.92R WCI   6
Minneapolis    CLOUDY    19  16  88 NW9       30.01S WCI   8
Indianapolis   CLOUDY    29  19  66 NW18      29.87R WCI  16
Toronto Canada PTCLDY     5  -2  72 N14G23    29.70R WCI -12

$$




USA.gov is the U.S. government's official web portal to all federal, state and local government web resources and services.